Tracking 19717 objects as of 24-Jun-2019
HD Live streaming from Space Station
objects crossing your sky now

TITAN 3C TRANSTAGE DEB

Track TITAN 3C TRANSTAGE DEB now!


NORAD ID: 26528
Int'l Code: 1965-108AP
Perigee: 907.1 km
Apogee: 30,142.7 km
Inclination: 27.1 °
Period: 537.4 minutes
Semi major axis: 21895 km
RCS: 0.117 m2 (medium)
Launch date: December 21, 1965
Source: United States (US)
Launch site: AIR FORCE EASTERN TEST RANGE (AFETR)

Note: This is SATELLITE DEBRIS
aabbcc
Your satellite tracking list
Your tracking list is empty




NASA's NSSDC Master Catalog

Two Line Element Set (TLE):
1 26528U 65108AP  19175.48957985  .00000030  00000-0  76149-3 0  9994
2 26528  27.0966 191.8472 6676045 110.3603   8.3315  2.67953409200552
Source of the keplerian elements: AFSPC